Mountain Home, ID

7:16 PM MDT on October 16, 2017 (GMT -0600)
Mountain Home Air Force Base

Weather History for KMUO - June, 2013

Change the Weather History Date:

Thursday, June 13, 2013

  Actual Average Record
Temperature  
Mean Temperature 62 °F 66 °F  
Max Temperature 69 °F 81 °F 101 °F (1959)
Min Temperature 52 °F 50 °F 32 °F (2001)
Degree Days  
Heating Degree Days 4 3  
Month to date heating degree days 8 47  
Cooling Degree Days 0 4  
Month to date cooling degree days 60 40  
Growing Degree Days 12 (Base 50)    
Moisture  
Dew Point 34 °F    
Average Humidity 34    
Maximum Humidity 55    
Minimum Humidity 22    
Precipitation  
Precipitation T in 0.02 in 0.61 in (2006)
Month to date precipitation T 0.34  
Sea Level Pressure  
Sea Level Pressure 30.00 in    
Wind  
Wind Speed 18 mph (NW)    
Max Wind Speed 29 mph    
Max Gust Speed 37 mph    
Visibility 10 miles    
Events Rain    
T = Trace of Precipitation, MM = Missing Value Source: NWS Daily Summary

Daily Weather History Graph

Daily Weather History Graph

Search for Another Location

Airport or City:

Trip Planner

Search our weather history database for the weather conditions in past years. The results will help you decide how hot, cold, wet, or windy it might be!

Date:

Astronomy

Jun. 13, 2013 Rise Set
Actual Time 6:03 AM MDT 9:23 PM MDT
Civil Twilight 5:28 AM MDT 9:59 PM MDT
Nautical Twilight 4:42 AM MDT 10:45 PM MDT
Astronomical Twilight 3:45 AM MDT 11:41 PM MDT
Moon 10:50 AM MDT (6/13) No Moon Set
Length of Visible Light 16h 30m
Length of Day
15h 20m
Waxing Crescent, 22% of the Moon is Illuminated
Jun 13
Waxing Crescent
Jun 16
First Quarter
Jun 23
Full
Jun 29
Last Quarter
Jul 8
New

Hourly Weather History & Observations

Time (MDT) Temp. Dew Point Humidity Pressure Visibility Wind Dir Wind Speed Gust Speed Precip Events Conditions
6:55 AM 54.3 °F 38.7 °F 55% 29.88 in 10.0 mi WNW 18.4 mph - N/A   Clear
7:55 AM 57.6 °F 37.0 °F 46% 29.92 in 10.0 mi WNW 23.0 mph - N/A   Scattered Clouds
8:55 AM 60.1 °F 34.9 °F 39% 29.94 in 10.0 mi NW 23.0 mph - N/A   Mostly Cloudy
9:55 AM 60.8 °F 34.0 °F 37% 29.97 in 10.0 mi NW 19.6 mph 25.3 mph N/A   Mostly Cloudy
10:55 AM 62.4 °F 36.3 °F 38% 29.98 in 10.0 mi WNW 17.3 mph - N/A   Mostly Cloudy
11:55 AM 65.7 °F 36.5 °F 34% 29.97 in 10.0 mi WNW 20.7 mph - N/A   Scattered Clouds
12:55 PM 69.4 °F 33.6 °F 27% 29.96 in 10.0 mi NW 20.7 mph - N/A   Mostly Cloudy
1:55 PM 69.4 °F 29.1 °F 22% 29.95 in 10.0 mi NNW 17.3 mph 28.8 mph N/A   Mostly Cloudy
2:55 PM 69.6 °F 28.4 °F 22% 29.96 in 10.0 mi NW 15.0 mph - N/A   Overcast
3:39 PM 68.0 °F 30.2 °F 24% 29.98 in 10.0 mi NNW 10.4 mph 26.5 mph N/A   Light Drizzle
3:55 PM 65.7 °F 32.2 °F 29% 30.01 in 10.0 mi NNW 10.4 mph - 0.00 in   Light Drizzle
4:11 PM 62.6 °F 37.4 °F 39% 30.05 in 9.0 mi WNW 9.2 mph - N/A Rain Light Rain
4:19 PM 64.4 °F 37.4 °F 37% 30.05 in 10.0 mi WNW 17.3 mph 28.8 mph N/A   Overcast
4:28 PM 64.4 °F 37.4 °F 37% 30.05 in 10.0 mi WNW 17.3 mph 28.8 mph N/A   Overcast
4:55 PM 64.4 °F 35.4 °F 34% 30.04 in 10.0 mi NNW 6.9 mph - 0.00 in   Light Drizzle
5:55 PM 69.3 °F 31.6 °F 25% 29.96 in 10.0 mi NW 13.8 mph 20.7 mph 0.00 in   Scattered Clouds
6:43 PM 68.0 °F 30.2 °F 24% 29.98 in 10.0 mi WNW 24.2 mph 33.4 mph N/A   Overcast
6:53 PM 68.0 °F 30.2 °F 24% 30.02 in 10.0 mi WNW 24.2 mph 33.4 mph N/A   Overcast
6:55 PM 68.5 °F 33.1 °F 27% 29.97 in 10.0 mi WNW 28.8 mph 36.8 mph N/A   Overcast
7:55 PM 64.4 °F 32.0 °F 30% 29.99 in 10.0 mi WNW 21.9 mph 28.8 mph N/A   Scattered Clouds
8:55 PM 61.2 °F 34.2 °F 36% 30.02 in 10.0 mi WNW 11.5 mph - N/A   Overcast
9:55 PM 59.0 °F 32.0 °F 36% 30.09 in 7.0 mi WNW 27.6 mph 35.7 mph 0.00 in   Mostly Cloudy
10:55 PM 56.7 °F 32.2 °F 40% 30.09 in 10.0 mi West 16.1 mph - N/A   Overcast
11:55 PM 52.0 °F 32.0 °F 47% 30.11 in 10.0 mi West 8.1 mph - N/A   Clear